Content
SEND FEEDBACK

Daily
Averages
Monthly
Summary
United Kingdom

TYNEMOUTH, ENGLAND


Home > Europe > United Kingdom > England
Elevation: 108 feet     Latitude: 55 01N     Longitude: 001 25W

WEATHER
 
SELECT A DAY
Number of Records: 289,229;   Date Range: 7/1/96 - 10/18/14
 
SHARE

PRINT THIS DATA

[ ← Previous Day ]
WEATHER ALMANAC - JANUARY 12, 2014
[ Next Day → ]
[ °C ]   °F
Weather ElementAverageHighLow
Temperature34.4 °F41 °F (8:20 pm)26.6 °F (5:50 am)
Dewpoint33.2 °F39.2 °F (10:20 pm)26.6 °F (5:20 am)
Humidity95.2 %100 % (1:20 am)87 % (2:50 pm)
Barometer29.89 in30.15 in (12:50 am)29.50 in (11:20 pm)
Wind Speed6.3 mph17.3 mph (10:20 pm)
Wind Gust25.3 mph (9:50 pm)
Weather ElementAverage
Visibility5 mi
Wind DirectionSE (139.1 °)

Weather ElementTotal
Precipitation---
Heating Degree Days31.2 (Base 65)
Averaged from 46 records on January 12, 2014
WEATHER CONDITIONS BREAKOUT
WIND DIRECTION BREAKOUT
WEATHER BY HOUR - JANUARY 12, 2014
[ °C ]   °F
Local TimeTemperatureDewpointHumidityBarometerVisibilityWind DirectionWind SpeedGust SpeedPrecipitationEventsConditions
12:50 AM32.0 °F30.2 °F93 %30.15 inWSW (240°)3.5 mphClear
1:20 AM32.0 °F32.0 °F100 %30.15 inSW (230°)5.8 mphClear
1:50 AM32.0 °F30.2 °F93 %30.12 inVariable2.3 mphClear
2:20 AM30.2 °F30.2 °F100 %30.12 inWSW (250°)3.5 mphClear
2:50 AM30.2 °F28.4 °F93 %30.15 inSSW (200°)2.3 mphClear
3:20 AM30.2 °F28.4 °F93 %30.12 inSouth (180°)3.5 mphClear
3:50 AM30.2 °F30.2 °F100 %30.12 inVariable2.3 mphClear
4:20 AM30.2 °F30.2 °F100 %30.12 inSouth (190°)3.5 mphClear
4:50 AM28.4 °F28.4 °F100 %30.09 inCalmClear
5:20 AM28.4 °F26.6 °F93 %30.09 inCalmClear
5:50 AM26.6 °F26.6 °F100 %30.09 inCalmClear
6:20 AM30.2 °F30.2 °F100 %30.09 inSE (140°)5.8 mphClear
6:50 AM32.0 °F30.2 °F93 %30.06 inSE (140°)4.6 mphClear
7:20 AM30.2 °F30.2 °F100 %30.06 inSouth (180°)5.8 mphClear
7:50 AM32.0 °F32.0 °F100 %30.06 inSouth (180°)4.6 mphClear
8:20 AM32.0 °F30.2 °F93 %30.04 in3.7 miSSE (160°)4.6 mph
8:50 AM32.0 °F32.0 °F100 %30.04 in3.7 miSouth (170°)4.6 mph
9:20 AM32.0 °F32.0 °F100 %30.04 in3.7 miSSE (160°)4.6 mph
9:50 AM32.0 °F32.0 °F100 %30.01 in3.7 miSSE (150°)5.8 mph
10:20 AM33.8 °F32.0 °F93 %30.01 in3.7 miVariable3.5 mph
10:50 AM33.8 °F33.8 °F100 %30.01 in3.7 miSSE (160°)6.9 mph
11:20 AM33.8 °F33.8 °F100 %29.98 in3.7 miSSE (160°)9.2 mph
11:50 AM33.8 °F32.0 °F93 %29.98 in3.7 miSSE (150°)6.9 mph
12:20 PM33.8 °F32.0 °F93 %29.92 in3.7 miSSE (150°)8.1 mphPartly Cloudy
12:50 PM33.8 °F33.8 °F100 %29.92 in3.7 miSSE (150°)8.1 mphPartly Cloudy
1:20 PM35.6 °F33.8 °F93 %29.89 in4.3 miSSE (160°)9.2 mphPartly Cloudy
1:50 PM35.6 °F33.8 °F93 %29.86 in4.3 miSE (140°)9.2 mphPartly Cloudy
2:20 PM35.6 °F33.8 °F93 %29.86 in4.3 miSSE (160°)6.9 mphPartly Cloudy
2:50 PM37.4 °F33.8 °F87 %29.83 in4.3 miSE (140°)5.8 mphScattered Clouds
3:20 PM37.4 °F35.6 °F93 %29.83 in4.3 miSE (130°)4.6 mphScattered Clouds
3:50 PM37.4 °F35.6 °F93 %29.80 in4.3 miSouth (180°)4.6 mphScattered Clouds
4:20 PM37.4 °F33.8 °F87 %29.80 in5.6 miVariable3.5 mphMostly Cloudy
4:50 PM37.4 °F33.8 °F87 %29.77 in5.6 miSE (130°)5.8 mphMostly Cloudy
5:20 PM37.4 °F33.8 °F87 %29.74 in5.6 miSE (130°)5.8 mphMostly Cloudy
5:50 PM37.4 °F35.6 °F93 %29.71 in6.2 miESE (120°)6.9 mphMostly Cloudy
6:20 PM37.4 °F35.6 °F93 %29.71 in6.2 miSE (130°)5.8 mphMostly Cloudy
6:50 PM37.4 °F35.6 °F93 %29.68 in6.2 miESE (120°)4.6 mphMostly Cloudy
7:20 PM39.2 °F37.4 °F93 %29.65 in6.2 miSE (130°)6.9 mphMostly Cloudy
7:50 PM39.2 °F37.4 °F93 %29.62 in6.2 miSSE (160°)13.8 mphMostly Cloudy
8:20 PM41.0 °F37.4 °F87 %29.62 in6.2 miSouth (170°)10.4 mph21.9 mphMostly Cloudy
8:50 PM39.2 °F37.4 °F93 %29.59 in6.2 miSouth (170°)11.5 mphMostly Cloudy
9:50 PM39.2 °F37.4 °F93 %29.56 in6.2 miSouth (180°)13.8 mph25.3 mphRainLight Rain
10:20 PM39.2 °F39.2 °F100 %29.53 in6.2 miSouth (170°)17.3 mphMostly Cloudy
10:50 PM39.2 °F39.2 °F100 %29.53 in6.2 miSouth (180°)15.0 mphRainLight Rain
11:20 PM39.2 °F39.2 °F100 %29.50 in6.2 miSouth (170°)13.8 mphRainLight Rain
11:50 PM39.2 °F39.2 °F100 %29.50 in6.2 miSouth (190°)6.9 mphRainLight Rain
Hourly data recorded from EGNT, located miles away from Tynemouth, England







STORIES FROM OUR PARTNERS